Goldsboro, NC

5:38 AM EDT on September 29, 2016 (GMT -0400)
Seymour Johnson Air Force Base

Weather History for KGSB - October, 2012

Change the Weather History Date:

Monday, October 29, 2012

  Actual Average Record
Temperature  
Mean Temperature 48 °F -  
Max Temperature 54 °F 69 °F 80 °F (1998)
Min Temperature 42 °F 46 °F 30 °F (2001)
Degree Days  
Heating Degree Days 16    
Moisture  
Dew Point 44 °F    
Average Humidity 82    
Maximum Humidity 94    
Minimum Humidity 57    
Precipitation  
Precipitation 0.00 in - - ()
Sea Level Pressure  
Sea Level Pressure 29.43 in    
Wind  
Wind Speed 15 mph (WNW)    
Max Wind Speed 24 mph    
Max Gust Speed 36 mph    
Visibility 10 miles    
Events Rain    
Averages and records for this station are not official NWS values.
T = Trace of Precipitation, MM = Missing Value Source: NWS Daily Summary

Daily Weather History Graph

Daily Weather History Graph

Search for Another Location

Airport or City:

Trip Planner

Search our weather history database for the weather conditions in past years. The results will help you decide how hot, cold, wet, or windy it might be!

Date:

Astronomy

Oct. 29, 2012 Rise Set
Actual Time 7:30 AM EDT 6:19 PM EDT
Civil Twilight 7:04 AM EDT 6:45 PM EDT
Nautical Twilight 6:34 AM EDT 7:15 PM EDT
Astronomical Twilight 6:05 AM EDT 7:45 PM EDT
Moon 6:12 PM EDT 7:18 AM EDT
Length of Visible Light 11h 40m
Length of Day
10h 48m
Full, 100% of the Moon is Illuminated
Oct 29
Full
Oct 29
Full
Nov 6
Last Quarter
Nov 13
New
Nov 20
First Quarter

Hourly Weather History & Observations

Time (EDT) Temp. Windchill Dew Point Humidity Pressure Visibility Wind Dir Wind Speed Gust Speed Precip Events Conditions
12:00 AM 55.4 °F - 51.8 °F 88% 29.51 in 10.0 mi NW 12.7 mph 25.3 mph N/A   Overcast
12:15 AM 55.4 °F - 51.8 °F 88% 29.51 in 10.0 mi NW 15.0 mph 21.9 mph N/A Rain Light Rain
12:55 AM 54.3 °F - 51.8 °F 91% 29.51 in 10.0 mi NW 13.8 mph 20.7 mph 0.00 in Rain Light Rain
1:37 AM 53.6 °F - 51.8 °F 94% 29.49 in 10.0 mi NW 13.8 mph 20.7 mph N/A Rain Light Rain
1:41 AM 53.6 °F - 51.8 °F 94% 29.49 in 10.0 mi NW 15.0 mph 20.7 mph N/A Rain Light Rain
1:55 AM 54.3 °F - 52.0 °F 92% 29.49 in 10.0 mi NW 15.0 mph 20.7 mph 0.00 in Rain Light Rain
2:03 AM 53.6 °F - 51.8 °F 94% 29.49 in 10.0 mi NW 11.5 mph - N/A   Overcast
2:28 AM 53.6 °F - 51.8 °F 94% 29.49 in 10.0 mi WNW 12.7 mph - N/A Rain Light Rain
2:34 AM 53.6 °F - 51.8 °F 94% 29.48 in 10.0 mi WNW 13.8 mph 20.7 mph N/A Rain Light Rain
2:40 AM 53.6 °F - 51.8 °F 94% 29.48 in 10.0 mi WNW 12.7 mph 20.7 mph N/A Rain Light Rain
2:55 AM 53.6 °F - 50.9 °F 91% 29.48 in 10.0 mi NW 15.0 mph 21.9 mph 0.00 in Rain Light Rain
3:00 AM 53.6 °F - 50.0 °F 88% 29.48 in 9.0 mi NW 15.0 mph 21.9 mph N/A Rain Light Rain
3:08 AM 53.6 °F - 50.0 °F 88% 29.48 in 10.0 mi WNW 11.5 mph - N/A Rain Light Rain
3:44 AM 51.8 °F - 50.0 °F 94% 29.48 in 10.0 mi NW 16.1 mph - N/A   Overcast
3:55 AM 52.5 °F - 49.8 °F 91% 29.48 in 10.0 mi WNW 11.5 mph 21.9 mph 0.00 in   Overcast
3:58 AM 51.8 °F - 50.0 °F 94% 29.48 in 10.0 mi WNW 11.5 mph 21.9 mph N/A Rain Light Rain
4:24 AM 51.8 °F - 50.0 °F 94% 29.48 in 6.0 mi WNW 15.0 mph 23.0 mph N/A Rain Light Rain
4:55 AM 51.3 °F - 49.3 °F 93% 29.47 in 7.0 mi WNW 15.0 mph 19.6 mph 0.00 in Rain Light Rain
5:36 AM 51.8 °F - 48.2 °F 88% 29.48 in 10.0 mi WNW 10.4 mph 18.4 mph N/A   Overcast
5:55 AM 50.9 °F - 49.1 °F 94% 29.48 in 10.0 mi WNW 10.4 mph - 0.00 in   Overcast
5:56 AM 50.0 °F - 48.2 °F 94% 29.48 in 10.0 mi WNW 15.0 mph - N/A Rain Light Rain
6:55 AM 49.5 °F - 47.7 °F 94% 29.47 in 7.0 mi WNW 12.7 mph - 0.00 in Rain Rain
7:33 AM 48.2 °F - 46.4 °F 93% 29.47 in 10.0 mi WNW 13.8 mph - N/A Rain Light Rain
7:48 AM 48.2 °F - 46.4 °F 93% 29.47 in 10.0 mi WNW 15.0 mph 21.9 mph N/A Rain Light Rain
7:55 AM 48.6 °F - 46.6 °F 93% 29.47 in 10.0 mi WNW 11.5 mph 19.6 mph 0.00 in Rain Light Rain
8:55 AM 48.0 °F - 45.7 °F 92% 29.48 in 10.0 mi WNW 17.3 mph 21.9 mph 0.00 in Rain Light Rain
9:18 AM 48.2 °F - 44.6 °F 87% 29.47 in 10.0 mi WNW 13.8 mph 24.2 mph N/A   Overcast
9:42 AM 48.2 °F - 44.6 °F 87% 29.46 in 10.0 mi WNW 17.3 mph 27.6 mph N/A   Overcast
9:55 AM 47.8 °F - 44.8 °F 89% 29.46 in 10.0 mi WNW 17.3 mph 28.8 mph 0.00 in   Overcast
10:55 AM 48.6 °F - 44.1 °F 84% 29.45 in 10.0 mi WNW 18.4 mph 23.0 mph N/A   Overcast
11:42 AM 50.0 °F - 42.8 °F 76% 29.44 in 10.0 mi WNW 20.7 mph 25.3 mph N/A   Overcast
11:55 AM 50.0 °F - 43.5 °F 78% 29.44 in 10.0 mi WNW 16.1 mph 26.5 mph N/A   Overcast
12:23 PM 50.0 °F - 42.8 °F 76% 29.44 in 10.0 mi WNW 18.4 mph 29.9 mph N/A   Overcast
12:40 PM 50.0 °F - 41.0 °F 71% 29.43 in 10.0 mi West 18.4 mph 27.6 mph N/A   Overcast
12:55 PM 51.1 °F - 41.9 °F 71% 29.43 in 10.0 mi West 17.3 mph 26.5 mph N/A   Overcast
1:20 PM 53.6 °F - 41.0 °F 62% 29.42 in 10.0 mi West 18.4 mph 28.8 mph N/A   Overcast
1:22 PM 53.6 °F - 41.0 °F 62% 29.42 in 10.0 mi WNW 23.0 mph 28.8 mph N/A   Overcast
1:39 PM 51.8 °F - 39.2 °F 62% 29.41 in 10.0 mi WNW 20.7 mph 29.9 mph N/A   Mostly Cloudy
1:55 PM 52.9 °F - 40.1 °F 62% 29.41 in 10.0 mi West 18.4 mph 26.5 mph N/A   Mostly Cloudy
2:55 PM 54.3 °F - 39.6 °F 57% 29.37 in 10.0 mi West 20.7 mph 27.6 mph N/A   Overcast
3:55 PM 52.5 °F - 38.7 °F 59% 29.37 in 10.0 mi West 17.3 mph 26.5 mph N/A   Overcast
4:55 PM 51.8 °F - 38.5 °F 60% 29.35 in 10.0 mi West 18.4 mph 24.2 mph N/A   Overcast
5:09 PM 51.8 °F - 39.2 °F 62% 29.35 in 10.0 mi West 18.4 mph 31.1 mph N/A Rain Light Rain
5:46 PM 50.0 °F - 39.2 °F 66% 29.35 in 10.0 mi West 16.1 mph 26.5 mph N/A   Overcast
5:55 PM 49.5 °F - 39.0 °F 67% 29.35 in 10.0 mi West 18.4 mph 24.2 mph 0.00 in Rain Light Rain
6:55 PM 49.1 °F - 36.7 °F 62% 29.34 in 10.0 mi West 23.0 mph 34.5 mph 0.00 in   Overcast
7:55 PM 48.4 °F - 36.3 °F 63% 29.34 in 10.0 mi West 19.6 mph 33.4 mph N/A   Overcast
8:30 PM 46.4 °F 38.3 °F 37.4 °F 71% 29.35 in 10.0 mi West 23.0 mph 31.1 mph N/A Rain Light Rain
8:35 PM 46.4 °F 38.1 °F 37.4 °F 71% 29.35 in 10.0 mi West 24.2 mph 32.2 mph N/A Rain Light Rain
8:55 PM 45.5 °F 37.1 °F 38.3 °F 76% 29.35 in 10.0 mi West 23.0 mph 34.5 mph 0.00 in Rain Light Rain
9:43 PM 44.6 °F 36.6 °F 39.2 °F 81% 29.35 in 10.0 mi West 19.6 mph 35.7 mph N/A Rain Light Rain
9:55 PM 43.5 °F 35.0 °F 39.4 °F 85% 29.35 in 10.0 mi West 20.7 mph 32.2 mph 0.00 in Rain Light Rain
9:56 PM 42.8 °F 33.3 °F 39.2 °F 87% 29.35 in 10.0 mi West 24.2 mph 32.2 mph N/A Rain Light Rain
10:16 PM 42.8 °F 34.0 °F 39.2 °F 87% 29.35 in 10.0 mi West 20.7 mph 32.2 mph N/A   Overcast
10:30 PM 42.8 °F 33.8 °F 39.2 °F 87% 29.34 in 10.0 mi West 21.9 mph 28.8 mph N/A   Overcast
10:42 PM 42.8 °F 34.3 °F 39.2 °F 87% 29.34 in 10.0 mi West 19.6 mph 28.8 mph N/A Rain Light Rain
10:55 PM 43.3 °F 35.2 °F 39.4 °F 86% 29.34 in 10.0 mi West 18.4 mph - 0.00 in Rain Light Rain
11:02 PM 42.8 °F 35.1 °F 39.2 °F 87% 29.34 in 10.0 mi WSW 16.1 mph 24.2 mph N/A Rain Light Rain
11:55 PM 43.5 °F 35.8 °F 40.5 °F 89% 29.33 in 10.0 mi WSW 17.3 mph - 0.00 in Rain Light Rain